ビショア彗星

P/2008 J2 ( Beshore )

English version
Home page
Total 6,336 html files since Dec. 4, 1995
Updated on July 20, 2008

---------------------------------------------------------------------

・ プロフィール

発見日 2008年5月6日
発見光度 13.8等
発見者 E. Beshore (Mt. Lemmon)

・ 写真集

・ 軌道要素

Epoch 2008 Apr. 4.0 TT = JDT 2454560.5
T 2008 Mar. 20.84541 TT                                 MPC
q   2.4102821            (2000.0)            P               Q
n   0.15178231     Peri.  131.80832     -0.62954027     +0.75667489
a   3.4806094      Node    98.29863     -0.75520989     -0.54257170
e   0.3075115      Incl.   10.26968     -0.18258442     -0.36477262
P   6.49

・ 星図

・ 光度変化

        m1 =  16   + 5 logΔ + 10 log r           [  ,46]  (              〜2008年 5月 5日)
        m1 = -23.5 + 5 logΔ + 80 log r(t + 200)  [46,  ]  (2008年 5月 5日〜              )

---------------------------------------------------------------------

軌道要素はM.P.E.C. 2008-N39に掲載されたものです。
星図はステラナビゲータ Ver.8 (アストロアーツ) で作成したものです。
光度グラフはComet for Windowsで作成したものです。

---------------------------------------------------------------------

Copyright(C) 1995-2008 Seiichi Yoshida (comet@aerith.net). All rights reserved.